Regional Weather Roundup
Issued by NWS

Home | Current Version | Previous Version | Graphics & Text | Print | Product List | Glossary On
Versions: 1 2 3 4 5 6 7 8 9 10 11 12 13 14 15 16 17 18 19 20 21 22 23 24 25 26 27 28 29 30 31 32 33 34 35 36 37 38 39 40 41 42 43 44 45 46 47 48 49 50
000
ASUS43 KOAX 280002
RWRNE

WEATHER ROUNDUP FOR NEBRASKA
NATIONAL WEATHER SERVICE OMAHA NE
700 PM CDT THU JUL 27 2017

NOTES: SATELLITE DATA IS BEING USED TO AUGMENT CLOUD COVER ABOVE
       12000 FEET.
       "FAIR" INDICATES FEW OR NO CLOUDS BELOW 12,000 FEET WITH NO
       SIGNIFICANT WEATHER AND/OR OBSTRUCTIONS TO VISIBILITY.


NEZ001>004-019>022-054>056-280100-
NEBRASKA PANHANDLE

CITY           SKY/WX    TMP DP  RH WIND       PRES   REMARKS
SCOTTSBLUFF    LGT RAIN  78  64  61 S18G29    30.00S
6HR MIN TEMP:  78; 6HR MAX TEMP:  91; 6HR PCP: TRACE;

ALLIANCE       TSTM      66  64  93 NE54G122  30.04R SQUALL  VSB 1/4
6HR MIN TEMP:  66; 6HR MAX TEMP:  87;

GORDON         FAIR      78  49  36 SE10      30.07R
6HR MIN TEMP:  66; 6HR MAX TEMP:  81;

KIMBALL        PTSUNNY   87  56  35 SE13G23   30.08F
SIDNEY         SUNNY     85  61  44 S16G25    30.08F
6HR MIN TEMP:  77; 6HR MAX TEMP:  89;

$$

NEZ057>060-069>072-079>082-280100-
SOUTHWEST NEBRASKA

CITY           SKY/WX    TMP DP  RH WIND       PRES   REMARKS
NORTH PLATTE   SUNNY     85  54  34 SE12      30.03F
6HR MIN TEMP:  82; 6HR MAX TEMP:  89;

IMPERIAL       SUNNY     84  59  42 SE8       30.04F
6HR MIN TEMP:  78; 6HR MAX TEMP:  87;

LEXINGTON      SUNNY     80  59  48 E10       30.05S
MCCOOK         SUNNY     86  57  37 E13       30.04S
6HR MIN TEMP:  81; 6HR MAX TEMP:  87;

OGALLALA       SUNNY     86  61  42 SE6       30.04F
$$

NEZ005>010-023>029-035>040-094-280100-
NORTH CENTRAL NEBRASKA

CITY           SKY/WX    TMP DP  RH WIND       PRES   REMARKS
VALENTINE      MOSUNNY   81  50  33 SE12      30.06F
6HR MIN TEMP:  80; 6HR MAX TEMP:  86;

AINSWORTH      LGT RAIN  75  62  63 E5        30.08F
BROKEN BOW     SUNNY     81  57  43 E10       30.06F
6HR MIN TEMP:  79; 6HR MAX TEMP:  86;

O`NEILL        CLOUDY    78  62  58 E6        30.07S
ORD            SUNNY     81  59  47 NE8       30.04S
6HR MIN TEMP:  79; 6HR MAX TEMP:  84;

THEDFORD       SUNNY     85  53  34 E12       30.06F
$$

NEZ041-046>049-061>064-073>077-083>087-280100-
SOUTH CENTRAL NEBRASKA

CITY           SKY/WX    TMP DP  RH WIND       PRES   REMARKS
GRAND ISLAND   SUNNY     80  65  59 E10       30.04F
6HR MIN TEMP:  78; 6HR MAX TEMP:  82;

AURORA         MOSUNNY   78  64  60 E8        30.04F
HASTINGS       CLOUDY    79  61  53 E8        30.05F
6HR MIN TEMP:  78; 6HR MAX TEMP:  82;

HEBRON         CLOUDY    83  64  52 NE8       30.00F
HOLDREGE       CLOUDY    78  58  50 E6        30.05S
KEARNEY        SUNNY     79  64  60 E9        30.04F
YORK           MOSUNNY   77  64  65 E10       30.03F
$$

NEZ011>018-030>034-042>045-280100-
NORTHEAST NEBRASKA

CITY           SKY/WX    TMP DP  RH WIND       PRES   REMARKS
NORFOLK        CLOUDY    79  58  48 NE8       30.04F
6HR MIN TEMP:  79; 6HR MAX TEMP:  83;

ALBION         CLOUDY    80  63  56 NE7       30.05F
BLAIR          SUNNY     82  62  51 N7        30.01F
COLUMBUS       SUNNY     79  64  60 NE12      30.03F
FREMONT        SUNNY     81  62  51 NE6       30.02S
TEKAMAH        SUNNY     83  64  52 N6        30.01S
6HR MIN TEMP:  81; 6HR MAX TEMP:  85;

WAYNE          MOSUNNY   81  62  53 NE10      30.04S
$$

NEZ050>053-065>068-078-088>093-280100-
SOUTHEAST NEBRASKA

CITY           SKY/WX    TMP DP  RH WIND       PRES   REMARKS
LINCOLN        SUNNY     82  63  52 NE13      30.01F
6HR MIN TEMP:  81; 6HR MAX TEMP:  84;

OMAHA EPPLEY   MOSUNNY   84  62  47 NE8       29.99F
6HR MIN TEMP:  82; 6HR MAX TEMP:  86;

BEATRICE       SUNNY     82  65  56 NE7       29.99F
FALLS CITY     CLOUDY    82  68  62 N8        29.96S
6HR MIN TEMP:  81; 6HR MAX TEMP:  86;

NEBRASKA CITY  SUNNY     80  66  62 NE8       29.99F
$$

NEZ044-045-051>053-067-280100-
OMAHA AREA

CITY           SKY/WX    TMP DP  RH WIND       PRES   REMARKS
OMAHA EPPLEY   MOSUNNY   84  62  47 NE8       29.99F
6HR MIN TEMP:  82; 6HR MAX TEMP:  86;

BLAIR          SUNNY     82  62  51 N7        30.01F
FREMONT        SUNNY     81  62  51 NE6       30.02S
MILLARD        SUNNY     84  64  49 N5        30.00S
OFFUTT AFB     MOSUNNY   82  64  54 NE6       29.99F
WAHOO          FAIR      80  64  59 NE7       30.01F
$$




USA.gov is the U.S. government's official web portal to all federal, state and local government web resources and services.